Time,TemperatureF,DewpointF,PressureIn,WindDirection,WindDirectionDegrees,WindSpeedMPH,WindSpeedGustMPH,Humidity,HourlyPrecipIn,Conditions,Clouds,dailyrainin,SolarRadiationWatts/m^2,SoftwareType,DateUTC
2013-02-11 00:00:00,28.2,26.2,30.11,SSW,200,0.0,0.0,92,0.00,,,0.00,0,LWC V2.10 B1813,2013-02-11 08:00:00,
2013-02-11 00:05:00,28.1,26.1,30.11,SSW,200,0.0,0.0,92,0.00,,,0.00,0,LWC V2.10 B1813,2013-02-11 08:05:00,
2013-02-11 00:10:00,28.0,26.0,30.11,SSW,200,0.0,0.0,92,0.00,,,0.00,0,LWC V2.10 B1813,2013-02-11 08:10:00,
2013-02-11 00:15:00,27.9,25.9,30.11,SSW,200,0.0,0.0,92,0.00,,,0.00,0,LWC V2.10 B1813,2013-02-11 08:15:00,
2013-02-11 00:20:00,27.9,25.9,30.11,SSW,200,0.0,0.0,92,0.00,,,0.00,0,LWC V2.10 B1813,2013-02-11 08:20:00,
2013-02-11 00:25:00,27.8,25.8,30.11,SSW,200,0.0,0.0,92,0.00,,,0.00,0,LWC V2.10 B1813,2013-02-11 08:25:00,
2013-02-11 00:30:00,27.7,25.7,30.11,SSW,200,0.0,0.0,92,0.00,,,0.00,0,LWC V2.10 B1813,2013-02-11 08:30:00,
2013-02-11 00:35:00,27.6,25.6,30.11,SSW,200,0.0,0.0,92,0.00,,,0.00,0,LWC V2.10 B1813,2013-02-11 08:35:00,
2013-02-11 00:40:00,27.5,25.5,30.11,SSW,200,0.0,0.0,92,0.00,,,0.00,0,LWC V2.10 B1813,2013-02-11 08:40:00,
2013-02-11 00:45:00,27.5,25.5,30.11,SSW,200,0.0,0.0,92,0.00,,,0.00,0,LWC V2.10 B1813,2013-02-11 08:45:00,
2013-02-11 00:50:00,27.4,25.4,30.12,SSW,200,0.0,0.0,92,0.00,,,0.00,0,LWC V2.10 B1813,2013-02-11 08:50:00,
2013-02-11 00:55:00,27.3,25.3,30.12,SSW,200,0.0,0.0,92,0.00,,,0.00,0,LWC V2.10 B1813,2013-02-11 08:55:00,
2013-02-11 01:00:00,27.2,25.2,30.12,SSW,200,0.0,0.0,92,0.00,,,0.00,0,LWC V2.10 B1813,2013-02-11 09:00:00,
2013-02-11 01:05:00,27.2,25.2,30.12,SSW,200,0.0,0.0,92,0.00,,,0.00,0,LWC V2.10 B1813,2013-02-11 09:05:00,
2013-02-11 01:10:00,27.1,25.1,30.12,SSW,200,0.0,0.0,92,0.00,,,0.00,0,LWC V2.10 B1813,2013-02-11 09:10:00,
2013-02-11 01:15:00,27.1,25.1,30.12,SSW,200,0.0,0.0,92,0.00,,,0.00,0,LWC V2.10 B1813,2013-02-11 09:15:00,
2013-02-11 01:20:00,27.0,25.0,30.12,SSW,200,0.0,0.0,92,0.00,,,0.00,0,LWC V2.10 B1813,2013-02-11 09:20:00,
2013-02-11 01:25:00,27.0,25.0,30.12,SSW,200,0.0,0.0,92,0.00,,,0.00,0,LWC V2.10 B1813,2013-02-11 09:25:00,
2013-02-11 01:30:00,27.0,25.0,30.12,SSW,200,0.0,0.0,92,0.00,,,0.00,0,LWC V2.10 B1813,2013-02-11 09:30:00,
2013-02-11 01:35:00,26.9,24.9,30.13,SSW,200,0.0,0.0,92,0.00,,,0.00,0,LWC V2.10 B1813,2013-02-11 09:35:00,
2013-02-11 01:40:00,26.9,24.9,30.13,SSW,200,0.0,0.0,92,0.00,,,0.00,0,LWC V2.10 B1813,2013-02-11 09:40:00,
2013-02-11 01:45:00,26.9,24.9,30.13,SSW,200,0.0,0.0,92,0.00,,,0.00,0,LWC V2.10 B1813,2013-02-11 09:45:00,
2013-02-11 01:50:00,26.8,24.8,30.13,SSW,200,0.0,0.0,92,0.00,,,0.00,0,LWC V2.10 B1813,2013-02-11 09:50:00,
2013-02-11 01:55:00,26.7,24.7,30.13,SSW,200,0.0,0.0,92,0.00,,,0.00,0,LWC V2.10 B1813,2013-02-11 09:55:00,
2013-02-11 02:00:00,26.7,24.7,30.12,SSW,200,0.0,0.0,92,0.00,,,0.00,0,LWC V2.10 B1813,2013-02-11 10:00:00,
2013-02-11 02:05:00,26.7,24.7,30.12,SSW,200,0.0,1.0,92,0.00,,,0.00,0,LWC V2.10 B1813,2013-02-11 10:05:00,
2013-02-11 02:10:00,26.7,24.7,30.12,SSW,200,0.0,1.0,92,0.00,,,0.00,0,LWC V2.10 B1813,2013-02-11 10:10:00,
2013-02-11 02:15:00,26.7,24.7,30.12,SSW,200,0.0,2.0,92,0.00,,,0.00,0,LWC V2.10 B1813,2013-02-11 10:15:00,
2013-02-11 02:20:00,26.7,24.7,30.12,SSW,200,0.0,0.0,92,0.00,,,0.00,0,LWC V2.10 B1813,2013-02-11 10:20:00,
2013-02-11 02:25:00,26.7,24.7,30.12,SSW,200,2.0,2.0,92,0.00,,,0.00,0,LWC V2.10 B1813,2013-02-11 10:25:00,
2013-02-11 02:30:00,26.7,24.7,30.12,SSW,200,0.0,1.0,92,0.00,,,0.00,0,LWC V2.10 B1813,2013-02-11 10:30:00,
2013-02-11 02:35:00,26.8,24.8,30.12,SSW,200,0.0,1.0,92,0.00,,,0.00,0,LWC V2.10 B1813,2013-02-11 10:35:00,
2013-02-11 02:40:00,26.8,24.8,30.12,SSW,200,0.0,0.0,92,0.00,,,0.00,0,LWC V2.10 B1813,2013-02-11 10:40:00,
2013-02-11 02:45:00,26.8,24.8,30.12,NW,305,0.0,3.0,92,0.00,,,0.00,0,LWC V2.10 B1813,2013-02-11 10:45:00,
2013-02-11 02:50:00,26.8,24.8,30.12,NW,305,0.0,1.0,92,0.00,,,0.00,0,LWC V2.10 B1813,2013-02-11 10:50:00,
2013-02-11 02:55:00,26.8,24.8,30.12,NW,305,0.0,0.0,92,0.00,,,0.00,0,LWC V2.10 B1813,2013-02-11 10:55:00,
2013-02-11 03:00:00,26.6,24.6,30.12,NW,305,0.0,0.0,92,0.00,,,0.00,0,LWC V2.10 B1813,2013-02-11 11:00:00,
2013-02-11 03:05:00,26.6,24.6,30.12,NW,305,0.0,0.0,92,0.00,,,0.00,0,LWC V2.10 B1813,2013-02-11 11:05:00,
2013-02-11 03:10:00,26.6,24.6,30.12,NW,305,0.0,0.0,92,0.00,,,0.00,0,LWC V2.10 B1813,2013-02-11 11:10:00,
2013-02-11 03:15:00,26.5,24.5,30.13,NW,305,0.0,0.0,92,0.00,,,0.00,0,LWC V2.10 B1813,2013-02-11 11:15:00,
2013-02-11 03:20:00,26.5,24.5,30.13,NW,305,0.0,0.0,92,0.00,,,0.00,0,LWC V2.10 B1813,2013-02-11 11:20:00,
2013-02-11 03:25:00,26.4,24.4,30.13,NW,305,0.0,0.0,92,0.00,,,0.00,0,LWC V2.10 B1813,2013-02-11 11:25:00,
2013-02-11 03:30:00,26.3,24.3,30.13,NW,305,0.0,0.0,92,0.00,,,0.00,0,LWC V2.10 B1813,2013-02-11 11:30:00,
2013-02-11 03:35:00,26.3,24.3,30.13,NW,305,0.0,0.0,92,0.00,,,0.00,0,LWC V2.10 B1813,2013-02-11 11:35:00,
2013-02-11 03:40:00,26.2,24.2,30.13,NW,305,0.0,0.0,92,0.00,,,0.00,0,LWC V2.10 B1813,2013-02-11 11:40:00,
2013-02-11 03:45:00,26.2,24.2,30.13,NW,305,0.0,0.0,92,0.00,,,0.00,0,LWC V2.10 B1813,2013-02-11 11:45:00,
2013-02-11 03:50:00,26.1,23.8,30.13,NW,305,0.0,0.0,91,0.00,,,0.00,0,LWC V2.10 B1813,2013-02-11 11:50:00,
2013-02-11 03:55:00,26.0,23.7,30.13,NW,305,0.0,0.0,91,0.00,,,0.00,0,LWC V2.10 B1813,2013-02-11 11:55:00,
2013-02-11 04:00:00,25.9,23.6,30.12,NW,305,0.0,0.0,91,0.00,,,0.00,0,LWC V2.10 B1813,2013-02-11 12:00:00,
2013-02-11 04:05:00,25.8,23.5,30.13,NW,305,0.0,0.0,91,0.00,,,0.00,0,LWC V2.10 B1813,2013-02-11 12:05:00,
2013-02-11 04:10:00,25.8,23.5,30.13,NW,305,0.0,0.0,91,0.00,,,0.00,0,LWC V2.10 B1813,2013-02-11 12:10:00,
2013-02-11 04:15:00,25.7,23.4,30.13,NW,305,0.0,0.0,91,0.00,,,0.00,0,LWC V2.10 B1813,2013-02-11 12:15:00,
2013-02-11 04:20:00,25.7,23.4,30.13,NW,305,0.0,0.0,91,0.00,,,0.00,0,LWC V2.10 B1813,2013-02-11 12:20:00,
2013-02-11 04:25:00,25.7,23.4,30.13,NW,305,0.0,0.0,91,0.00,,,0.00,0,LWC V2.10 B1813,2013-02-11 12:25:00,
2013-02-11 04:30:00,25.6,23.1,30.13,NW,305,0.0,0.0,90,0.00,,,0.00,0,LWC V2.10 B1813,2013-02-11 12:30:00,
2013-02-11 04:35:00,25.6,23.3,30.13,NW,305,0.0,0.0,91,0.00,,,0.00,0,LWC V2.10 B1813,2013-02-11 12:35:00,
2013-02-11 04:40:00,25.5,23.2,30.13,NW,305,0.0,0.0,91,0.00,,,0.00,0,LWC V2.10 B1813,2013-02-11 12:40:00,
2013-02-11 04:45:00,25.4,23.1,30.14,NW,305,0.0,0.0,91,0.00,,,0.00,0,LWC V2.10 B1813,2013-02-11 12:45:00,
2013-02-11 04:50:00,25.4,23.4,30.14,NW,305,0.0,0.0,92,0.00,,,0.00,0,LWC V2.10 B1813,2013-02-11 12:50:00,
2013-02-11 04:55:00,25.4,23.4,30.14,NW,305,0.0,0.0,92,0.00,,,0.00,0,LWC V2.10 B1813,2013-02-11 12:55:00,
2013-02-11 05:00:00,25.4,23.4,30.14,NW,305,0.0,0.0,92,0.00,,,0.00,0,LWC V2.10 B1813,2013-02-11 13:00:00,
2013-02-11 05:05:00,25.4,23.4,30.14,NW,305,0.0,0.0,92,0.00,,,0.00,0,LWC V2.10 B1813,2013-02-11 13:05:00,
2013-02-11 05:10:00,25.4,23.4,30.14,NW,305,0.0,1.0,92,0.00,,,0.00,0,LWC V2.10 B1813,2013-02-11 13:10:00,
2013-02-11 05:15:00,25.4,23.4,30.15,NW,305,0.0,0.0,92,0.00,,,0.00,0,LWC V2.10 B1813,2013-02-11 13:15:00,
2013-02-11 05:20:00,25.3,23.3,30.15,NW,305,0.0,0.0,92,0.00,,,0.00,0,LWC V2.10 B1813,2013-02-11 13:20:00,
2013-02-11 05:25:00,25.2,23.2,30.15,NW,305,0.0,0.0,92,0.00,,,0.00,0,LWC V2.10 B1813,2013-02-11 13:25:00,
2013-02-11 05:30:00,25.2,23.2,30.15,NW,305,0.0,0.0,92,0.00,,,0.00,0,LWC V2.10 B1813,2013-02-11 13:30:00,
2013-02-11 05:35:00,25.2,23.2,30.15,NW,305,0.0,0.0,92,0.00,,,0.00,0,LWC V2.10 B1813,2013-02-11 13:35:00,
2013-02-11 05:40:00,25.3,23.3,30.15,NW,305,0.0,0.0,92,0.00,,,0.00,0,LWC V2.10 B1813,2013-02-11 13:40:00,
2013-02-11 05:45:00,25.3,23.3,30.15,NW,305,0.0,0.0,92,0.00,,,0.00,0,LWC V2.10 B1813,2013-02-11 13:45:00,
2013-02-11 05:50:00,25.3,23.3,30.16,NW,305,0.0,0.0,92,0.00,,,0.00,0,LWC V2.10 B1813,2013-02-11 13:50:00,
2013-02-11 05:55:00,25.2,23.2,30.16,NW,305,0.0,0.0,92,0.00,,,0.00,0,LWC V2.10 B1813,2013-02-11 13:55:00,
2013-02-11 06:00:00,25.2,23.2,30.16,NW,305,0.0,0.0,92,0.00,,,0.00,0,LWC V2.10 B1813,2013-02-11 14:00:00,
2013-02-11 06:05:00,25.2,23.2,30.17,NW,305,0.0,0.0,92,0.00,,,0.00,0,LWC V2.10 B1813,2013-02-11 14:05:00,
2013-02-11 06:10:00,25.2,23.2,30.16,NW,305,0.0,0.0,92,0.00,,,0.00,0,LWC V2.10 B1813,2013-02-11 14:10:00,
2013-02-11 06:15:00,25.1,23.1,30.17,NW,305,0.0,0.0,92,0.00,,,0.00,0,LWC V2.10 B1813,2013-02-11 14:15:00,
2013-02-11 06:20:00,25.1,23.1,30.17,NW,305,0.0,0.0,92,0.00,,,0.00,0,LWC V2.10 B1813,2013-02-11 14:20:00,
2013-02-11 06:25:00,25.1,23.1,30.17,NW,305,0.0,0.0,92,0.00,,,0.00,0,LWC V2.10 B1813,2013-02-11 14:25:00,
2013-02-11 06:30:00,25.0,23.0,30.17,NW,305,0.0,0.0,92,0.00,,,0.00,0,LWC V2.10 B1813,2013-02-11 14:30:00,
2013-02-11 06:35:00,25.1,23.1,30.17,NW,305,0.0,0.0,92,0.00,,,0.00,0,LWC V2.10 B1813,2013-02-11 14:35:00,
2013-02-11 06:40:00,25.0,23.0,30.17,NW,305,0.0,0.0,92,0.00,,,0.00,0,LWC V2.10 B1813,2013-02-11 14:40:00,
2013-02-11 06:45:00,25.0,23.0,30.18,NW,305,0.0,0.0,92,0.00,,,0.00,0,LWC V2.10 B1813,2013-02-11 14:45:00,
2013-02-11 06:50:00,24.9,22.9,30.18,NW,305,0.0,0.0,92,0.00,,,0.00,0,LWC V2.10 B1813,2013-02-11 14:50:00,
2013-02-11 06:55:00,24.8,22.8,30.18,NW,305,0.0,0.0,92,0.00,,,0.00,0,LWC V2.10 B1813,2013-02-11 14:55:00,
2013-02-11 07:00:00,24.9,23.2,30.19,NW,305,0.0,0.0,93,0.00,,,0.00,5,LWC V2.10 B1813,2013-02-11 15:00:00,
2013-02-11 07:05:00,24.9,23.2,30.19,NW,305,0.0,0.0,93,0.00,,,0.00,7,LWC V2.10 B1813,2013-02-11 15:05:00,
2013-02-11 07:10:00,24.9,22.9,30.19,NW,305,0.0,0.0,92,0.00,,,0.00,9,LWC V2.10 B1813,2013-02-11 15:10:00,
2013-02-11 07:15:00,24.9,22.9,30.19,NW,305,0.0,0.0,92,0.00,,,0.00,11,LWC V2.10 B1813,2013-02-11 15:15:00,
2013-02-11 07:20:00,24.9,22.9,30.19,NW,305,0.0,0.0,92,0.00,,,0.00,11,LWC V2.10 B1813,2013-02-11 15:20:00,
2013-02-11 07:25:00,24.9,22.9,30.20,NW,305,0.0,0.0,92,0.00,,,0.00,12,LWC V2.10 B1813,2013-02-11 15:25:00,
2013-02-11 07:30:00,25.0,23.0,30.21,NW,305,0.0,0.0,92,0.00,,,0.00,14,LWC V2.10 B1813,2013-02-11 15:30:00,
2013-02-11 07:35:00,25.1,23.1,30.21,NW,305,0.0,0.0,92,0.00,,,0.00,16,LWC V2.10 B1813,2013-02-11 15:35:00,
2013-02-11 07:40:00,25.2,23.2,30.21,NW,305,0.0,0.0,92,0.00,,,0.00,18,LWC V2.10 B1813,2013-02-11 15:40:00,
2013-02-11 07:45:00,25.2,23.2,30.21,NW,305,0.0,0.0,92,0.00,,,0.00,18,LWC V2.10 B1813,2013-02-11 15:45:00,
2013-02-11 07:50:00,25.3,23.3,30.21,NW,305,0.0,0.0,92,0.00,,,0.00,18,LWC V2.10 B1813,2013-02-11 15:50:00,
2013-02-11 07:55:00,25.5,23.8,30.21,NW,305,0.0,0.0,93,0.00,,,0.00,19,LWC V2.10 B1813,2013-02-11 15:55:00,
2013-02-11 08:00:00,25.7,24.0,30.22,NW,305,0.0,0.0,93,0.00,,,0.00,21,LWC V2.10 B1813,2013-02-11 16:00:00,
2013-02-11 08:05:00,25.9,24.2,30.22,NW,305,0.0,0.0,93,0.00,,,0.00,23,LWC V2.10 B1813,2013-02-11 16:05:00,
2013-02-11 08:10:00,26.1,24.4,30.22,NW,305,0.0,0.0,93,0.00,,,0.00,21,LWC V2.10 B1813,2013-02-11 16:10:00,
2013-02-11 08:15:00,26.4,24.7,30.22,NW,305,0.0,0.0,93,0.00,,,0.00,23,LWC V2.10 B1813,2013-02-11 16:15:00,
2013-02-11 08:20:00,26.7,25.0,30.22,NW,305,0.0,0.0,93,0.00,,,0.00,23,LWC V2.10 B1813,2013-02-11 16:20:00,
2013-02-11 08:25:00,26.9,25.2,30.22,NW,305,0.0,0.0,93,0.00,,,0.00,25,LWC V2.10 B1813,2013-02-11 16:25:00,
2013-02-11 08:30:00,27.1,25.4,30.22,NW,305,0.0,0.0,93,0.00,,,0.00,28,LWC V2.10 B1813,2013-02-11 16:30:00,
2013-02-11 08:35:00,27.5,25.7,30.22,NW,305,0.0,0.0,93,0.00,,,0.00,35,LWC V2.10 B1813,2013-02-11 16:35:00,
2013-02-11 08:40:00,27.8,26.0,30.23,NW,305,0.0,0.0,93,0.00,,,0.00,33,LWC V2.10 B1813,2013-02-11 16:40:00,
2013-02-11 08:45:00,28.2,26.4,30.23,NW,305,0.0,0.0,93,0.00,,,0.00,67,LWC V2.10 B1813,2013-02-11 16:45:00,
2013-02-11 08:50:00,28.6,26.8,30.23,NW,305,0.0,0.0,93,0.00,,,0.00,28,LWC V2.10 B1813,2013-02-11 16:50:00,
2013-02-11 08:55:00,28.9,27.1,30.23,NW,305,0.0,0.0,93,0.00,,,0.00,30,LWC V2.10 B1813,2013-02-11 16:55:00,
2013-02-11 09:00:00,29.3,27.5,30.24,NW,305,0.0,0.0,93,0.00,,,0.00,28,LWC V2.10 B1813,2013-02-11 17:00:00,
2013-02-11 09:05:00,29.8,27.8,30.24,NW,305,0.0,0.0,92,0.00,,,0.00,51,LWC V2.10 B1813,2013-02-11 17:05:00,
2013-02-11 09:10:00,31.2,28.3,30.24,SSW,204,2.0,6.0,89,0.00,,,0.00,111,LWC V2.10 B1813,2013-02-11 17:10:00,
2013-02-11 09:15:00,33.1,28.5,30.24,WSW,237,5.0,5.0,83,0.00,,,0.00,53,LWC V2.10 B1813,2013-02-11 17:15:00,
2013-02-11 09:20:00,35.0,28.2,30.24,WSW,250,0.0,1.0,76,0.00,,,0.00,107,LWC V2.10 B1813,2013-02-11 17:20:00,
2013-02-11 09:25:00,36.2,28.4,30.24,WSW,250,1.0,3.0,73,0.00,,,0.00,44,LWC V2.10 B1813,2013-02-11 17:25:00,
2013-02-11 09:30:00,36.5,30.3,30.24,West,273,0.0,3.0,78,0.00,,,0.00,42,LWC V2.10 B1813,2013-02-11 17:30:00,
2013-02-11 09:35:00,36.5,28.3,30.23,West,269,3.0,5.0,72,0.00,,,0.00,35,LWC V2.10 B1813,2013-02-11 17:35:00,
2013-02-11 09:40:00,37.0,28.5,30.23,West,264,2.0,5.0,71,0.00,,,0.00,58,LWC V2.10 B1813,2013-02-11 17:40:00,
2013-02-11 09:45:00,37.6,28.7,30.23,WSW,247,2.0,2.0,70,0.00,,,0.00,127,LWC V2.10 B1813,2013-02-11 17:45:00,
2013-02-11 09:50:00,38.5,29.6,30.24,SSW,202,0.0,4.0,70,0.00,,,0.00,492,LWC V2.10 B1813,2013-02-11 17:50:00,
2013-02-11 09:55:00,39.5,29.5,30.24,SSW,192,1.0,5.0,67,0.00,,,0.00,510,LWC V2.10 B1813,2013-02-11 17:55:00,
2013-02-11 10:00:00,39.8,29.8,30.24,NW,304,5.0,6.0,67,0.00,,,0.00,336,LWC V2.10 B1813,2013-02-11 18:00:00,
2013-02-11 10:05:00,40.2,29.0,30.24,SW,225,2.0,5.0,64,0.00,,,0.00,197,LWC V2.10 B1813,2013-02-11 18:05:00,
2013-02-11 10:10:00,39.9,29.1,30.24,SSW,204,4.0,6.0,65,0.00,,,0.00,169,LWC V2.10 B1813,2013-02-11 18:10:00,
2013-02-11 10:15:00,41.0,30.5,30.25,WSW,256,0.0,4.0,66,0.00,,,0.00,555,LWC V2.10 B1813,2013-02-11 18:15:00,
2013-02-11 10:20:00,42.0,29.9,30.25,West,277,1.0,5.0,62,0.00,,,0.00,566,LWC V2.10 B1813,2013-02-11 18:20:00,
2013-02-11 10:25:00,41.1,30.2,30.25,SW,231,2.0,3.0,65,0.00,,,0.00,578,LWC V2.10 B1813,2013-02-11 18:25:00,
2013-02-11 10:30:00,41.3,29.7,30.25,SSE,167,2.0,2.0,63,0.00,,,0.00,591,LWC V2.10 B1813,2013-02-11 18:30:00,
2013-02-11 10:35:00,41.7,28.9,30.25,WNW,303,4.0,6.0,60,0.00,,,0.00,603,LWC V2.10 B1813,2013-02-11 18:35:00,
2013-02-11 10:40:00,43.2,31.9,30.25,WSW,237,1.0,4.0,64,0.00,,,0.00,615,LWC V2.10 B1813,2013-02-11 18:40:00,
2013-02-11 10:45:00,43.8,30.8,30.25,West,263,2.0,5.0,60,0.00,,,0.00,626,LWC V2.10 B1813,2013-02-11 18:45:00,
2013-02-11 10:50:00,42.8,29.1,30.24,South,190,0.0,4.0,58,0.00,,,0.00,613,LWC V2.10 B1813,2013-02-11 18:50:00,
2013-02-11 10:55:00,42.6,29.7,30.24,West,281,2.0,3.0,60,0.00,,,0.00,628,LWC V2.10 B1813,2013-02-11 18:55:00,
2013-02-11 11:00:00,43.2,29.4,30.24,SSE,161,0.0,2.0,58,0.00,,,0.00,591,LWC V2.10 B1813,2013-02-11 19:00:00,
2013-02-11 11:05:00,43.7,29.0,30.24,South,184,3.0,7.0,56,0.00,,,0.00,640,LWC V2.10 B1813,2013-02-11 19:05:00,
2013-02-11 11:10:00,43.6,28.1,30.24,SSW,192,0.0,2.0,54,0.00,,,0.00,645,LWC V2.10 B1813,2013-02-11 19:10:00,
2013-02-11 11:15:00,43.8,30.0,30.24,SE,146,0.0,4.0,58,0.00,,,0.00,645,LWC V2.10 B1813,2013-02-11 19:15:00,
2013-02-11 11:20:00,44.4,29.7,30.24,SW,236,3.0,5.0,56,0.00,,,0.00,657,LWC V2.10 B1813,2013-02-11 19:20:00,
2013-02-11 11:25:00,45.9,30.2,30.25,West,268,1.0,5.0,54,0.00,,,0.00,663,LWC V2.10 B1813,2013-02-11 19:25:00,
2013-02-11 11:30:00,45.1,30.4,30.24,South,187,3.0,6.0,56,0.00,,,0.00,666,LWC V2.10 B1813,2013-02-11 19:30:00,
2013-02-11 11:35:00,44.8,30.9,30.24,West,277,5.0,6.0,58,0.00,,,0.00,664,LWC V2.10 B1813,2013-02-11 19:35:00,
2013-02-11 11:40:00,44.3,30.0,30.24,SW,225,8.0,8.0,57,0.00,,,0.00,613,LWC V2.10 B1813,2013-02-11 19:40:00,
2013-02-11 11:45:00,44.4,31.0,30.24,SE,142,3.0,3.0,59,0.00,,,0.00,671,LWC V2.10 B1813,2013-02-11 19:45:00,
2013-02-11 11:50:00,45.3,31.0,30.24,WNW,299,2.0,8.0,57,0.00,,,0.00,679,LWC V2.10 B1813,2013-02-11 19:50:00,
2013-02-11 11:55:00,46.1,30.4,30.24,West,265,0.0,4.0,54,0.00,,,0.00,680,LWC V2.10 B1813,2013-02-11 19:55:00,
2013-02-11 12:00:00,45.6,29.9,30.24,South,169,5.0,6.0,54,0.00,,,0.00,512,LWC V2.10 B1813,2013-02-11 20:00:00,
2013-02-11 12:05:00,45.7,30.9,30.24,SSW,207,3.0,7.0,56,0.00,,,0.00,679,LWC V2.10 B1813,2013-02-11 20:05:00,
2013-02-11 12:10:00,45.9,31.1,30.24,SW,227,0.0,4.0,56,0.00,,,0.00,671,LWC V2.10 B1813,2013-02-11 20:10:00,
2013-02-11 12:15:00,45.8,31.4,30.24,South,169,4.0,8.0,57,0.00,,,0.00,680,LWC V2.10 B1813,2013-02-11 20:15:00,
2013-02-11 12:20:00,45.6,31.3,30.24,SSE,148,7.0,9.0,57,0.00,,,0.00,700,LWC V2.10 B1813,2013-02-11 20:20:00,
2013-02-11 12:25:00,46.6,32.6,30.24,West,267,2.0,4.0,58,0.00,,,0.00,701,LWC V2.10 B1813,2013-02-11 20:25:00,
2013-02-11 12:30:00,47.0,32.1,30.24,South,171,5.0,5.0,56,0.00,,,0.00,710,LWC V2.10 B1813,2013-02-11 20:30:00,
2013-02-11 12:35:00,45.8,30.1,30.23,SW,223,0.0,1.0,54,0.00,,,0.00,102,LWC V2.10 B1813,2013-02-11 20:35:00,
2013-02-11 12:40:00,46.1,31.7,30.24,West,268,4.0,4.0,57,0.00,,,0.00,724,LWC V2.10 B1813,2013-02-11 20:40:00,
2013-02-11 12:45:00,45.2,29.1,30.23,SW,229,0.0,2.0,53,0.00,,,0.00,102,LWC V2.10 B1813,2013-02-11 20:45:00,
2013-02-11 12:50:00,45.0,29.8,30.23,West,275,0.0,6.0,55,0.00,,,0.00,684,LWC V2.10 B1813,2013-02-11 20:50:00,
2013-02-11 12:55:00,46.7,31.4,30.23,WSW,242,3.0,5.0,55,0.00,,,0.00,680,LWC V2.10 B1813,2013-02-11 20:55:00,
2013-02-11 13:00:00,46.5,32.1,30.23,South,180,4.0,6.0,57,0.00,,,0.00,675,LWC V2.10 B1813,2013-02-11 21:00:00,
2013-02-11 13:05:00,46.7,30.9,30.23,West,275,2.0,6.0,54,0.00,,,0.00,693,LWC V2.10 B1813,2013-02-11 21:05:00,
2013-02-11 13:10:00,47.8,32.4,30.22,WSW,249,0.0,4.0,55,0.00,,,0.00,689,LWC V2.10 B1813,2013-02-11 21:10:00,
2013-02-11 13:15:00,47.8,31.5,30.22,SSW,192,3.0,5.0,53,0.00,,,0.00,698,LWC V2.10 B1813,2013-02-11 21:15:00,
2013-02-11 13:20:00,46.7,30.9,30.22,WSW,248,2.0,10.0,54,0.00,,,0.00,691,LWC V2.10 B1813,2013-02-11 21:20:00,
2013-02-11 13:25:00,46.8,31.9,30.22,WSW,250,1.0,2.0,56,0.00,,,0.00,758,LWC V2.10 B1813,2013-02-11 21:25:00,
2013-02-11 13:30:00,47.4,30.2,30.22,SE,130,2.0,3.0,51,0.00,,,0.00,751,LWC V2.10 B1813,2013-02-11 21:30:00,
2013-02-11 13:35:00,46.9,31.1,30.22,South,184,4.0,6.0,54,0.00,,,0.00,243,LWC V2.10 B1813,2013-02-11 21:35:00,
2013-02-11 13:40:00,46.1,30.4,30.22,SSE,162,2.0,6.0,54,0.00,,,0.00,223,LWC V2.10 B1813,2013-02-11 21:40:00,
2013-02-11 13:45:00,45.7,30.9,30.21,SSE,148,0.0,5.0,56,0.00,,,0.00,267,LWC V2.10 B1813,2013-02-11 21:45:00,
2013-02-11 13:50:00,45.9,31.1,30.21,SSE,157,4.0,5.0,56,0.00,,,0.00,288,LWC V2.10 B1813,2013-02-11 21:50:00,
2013-02-11 13:55:00,45.8,31.0,30.22,West,269,1.0,3.0,56,0.00,,,0.00,250,LWC V2.10 B1813,2013-02-11 21:55:00,
2013-02-11 14:00:00,45.8,31.9,30.21,West,259,1.0,2.0,58,0.00,,,0.00,241,LWC V2.10 B1813,2013-02-11 22:00:00,
2013-02-11 14:05:00,45.8,31.4,30.21,SSE,161,1.0,5.0,57,0.00,,,0.00,179,LWC V2.10 B1813,2013-02-11 22:05:00,
2013-02-11 14:10:00,45.6,31.3,30.21,SW,229,0.0,2.0,57,0.00,,,0.00,241,LWC V2.10 B1813,2013-02-11 22:10:00,
2013-02-11 14:15:00,46.0,32.9,30.22,North,9,0.0,3.0,60,0.00,,,0.00,715,LWC V2.10 B1813,2013-02-11 22:15:00,
2013-02-11 14:20:00,47.9,33.8,30.21,WNW,285,0.0,4.0,58,0.00,,,0.00,415,LWC V2.10 B1813,2013-02-11 22:20:00,
2013-02-11 14:25:00,47.8,32.4,30.22,South,185,4.0,7.0,55,0.00,,,0.00,679,LWC V2.10 B1813,2013-02-11 22:25:00,
2013-02-11 14:30:00,47.1,31.8,30.22,South,184,7.0,8.0,55,0.00,,,0.00,200,LWC V2.10 B1813,2013-02-11 22:30:00,
2013-02-11 14:35:00,45.7,30.9,30.22,SSE,155,0.0,1.0,56,0.00,,,0.00,297,LWC V2.10 B1813,2013-02-11 22:35:00,
2013-02-11 14:40:00,45.6,30.8,30.22,SSE,163,5.0,7.0,56,0.00,,,0.00,192,LWC V2.10 B1813,2013-02-11 22:40:00,
2013-02-11 14:45:00,45.7,31.8,30.21,NE,52,4.0,4.0,58,0.00,,,0.00,322,LWC V2.10 B1813,2013-02-11 22:45:00,
2013-02-11 14:50:00,46.4,32.0,30.22,West,269,1.0,2.0,57,0.00,,,0.00,165,LWC V2.10 B1813,2013-02-11 22:50:00,
2013-02-11 14:55:00,45.8,31.0,30.22,SSE,159,0.0,9.0,56,0.00,,,0.00,148,LWC V2.10 B1813,2013-02-11 22:55:00,
2013-02-11 15:00:00,45.6,31.3,30.22,West,273,0.0,2.0,57,0.00,,,0.00,141,LWC V2.10 B1813,2013-02-11 23:00:00,
2013-02-11 15:05:00,45.2,31.7,30.22,SSW,198,0.0,3.0,59,0.00,,,0.00,151,LWC V2.10 B1813,2013-02-11 23:05:00,
2013-02-11 15:10:00,45.4,31.9,30.22,SSW,198,0.0,4.0,59,0.00,,,0.00,162,LWC V2.10 B1813,2013-02-11 23:10:00,
2013-02-11 15:15:00,45.9,32.0,30.22,WNW,290,0.0,3.0,58,0.00,,,0.00,176,LWC V2.10 B1813,2013-02-11 23:15:00,
2013-02-11 15:20:00,46.2,32.7,30.22,WNW,292,1.0,1.0,59,0.00,,,0.00,220,LWC V2.10 B1813,2013-02-11 23:20:00,
2013-02-11 15:25:00,45.2,32.1,30.22,SE,144,1.0,3.0,60,0.00,,,0.00,199,LWC V2.10 B1813,2013-02-11 23:25:00,
2013-02-11 15:30:00,44.8,31.8,30.23,SW,227,2.0,5.0,60,0.00,,,0.00,181,LWC V2.10 B1813,2013-02-11 23:30:00,
2013-02-11 15:35:00,45.2,32.6,30.22,SSW,211,3.0,3.0,61,0.00,,,0.00,165,LWC V2.10 B1813,2013-02-11 23:35:00,
2013-02-11 15:40:00,44.8,31.8,30.22,South,188,4.0,4.0,60,0.00,,,0.00,134,LWC V2.10 B1813,2013-02-11 23:40:00,
2013-02-11 15:45:00,44.6,31.6,30.23,South,182,0.0,4.0,60,0.00,,,0.00,130,LWC V2.10 B1813,2013-02-11 23:45:00,
2013-02-11 15:50:00,44.8,32.2,30.23,South,182,0.0,1.0,61,0.00,,,0.00,113,LWC V2.10 B1813,2013-02-11 23:50:00,
2013-02-11 15:55:00,45.1,32.1,30.23,South,182,1.0,1.0,60,0.00,,,0.00,81,LWC V2.10 B1813,2013-02-11 23:55:00,
2013-02-11 16:00:00,45.0,32.0,30.23,South,182,1.0,4.0,60,0.00,,,0.00,77,LWC V2.10 B1813,2013-02-12 00:00:00,
2013-02-11 16:05:00,44.9,32.7,30.23,South,182,0.0,4.0,62,0.00,,,0.00,77,LWC V2.10 B1813,2013-02-12 00:05:00,
2013-02-11 16:10:00,44.8,32.6,30.23,South,182,0.0,0.0,62,0.00,,,0.00,63,LWC V2.10 B1813,2013-02-12 00:10:00,
2013-02-11 16:15:00,44.7,32.1,30.23,SSE,157,1.0,4.0,61,0.00,,,0.00,65,LWC V2.10 B1813,2013-02-12 00:15:00,
2013-02-11 16:20:00,44.6,33.2,30.24,SSE,157,0.0,1.0,64,0.00,,,0.00,62,LWC V2.10 B1813,2013-02-12 00:20:00,
2013-02-11 16:25:00,44.7,32.9,30.24,SSE,157,0.0,0.0,63,0.00,,,0.00,44,LWC V2.10 B1813,2013-02-12 00:25:00,
2013-02-11 16:30:00,44.5,32.3,30.24,SSE,157,2.0,3.0,62,0.00,,,0.00,35,LWC V2.10 B1813,2013-02-12 00:30:00,
2013-02-11 16:35:00,44.2,32.8,30.24,SSE,163,2.0,2.0,64,0.00,,,0.00,30,LWC V2.10 B1813,2013-02-12 00:35:00,
2013-02-11 16:40:00,44.0,32.6,30.24,West,268,2.0,3.0,64,0.00,,,0.00,21,LWC V2.10 B1813,2013-02-12 00:40:00,
2013-02-11 16:45:00,43.9,32.9,30.24,West,268,0.0,1.0,65,0.00,,,0.00,18,LWC V2.10 B1813,2013-02-12 00:45:00,
2013-02-11 16:50:00,43.7,32.7,30.25,West,268,3.0,3.0,65,0.00,,,0.00,14,LWC V2.10 B1813,2013-02-12 00:50:00,
2013-02-11 16:55:00,43.6,32.2,30.25,SSW,197,0.0,1.0,64,0.00,,,0.00,11,LWC V2.10 B1813,2013-02-12 00:55:00,
2013-02-11 17:00:00,43.3,32.7,30.25,SSW,197,0.0,0.0,66,0.00,,,0.00,11,LWC V2.10 B1813,2013-02-12 01:00:00,
2013-02-11 17:05:00,43.1,32.5,30.25,SSW,196,1.0,2.0,66,0.00,,,0.00,9,LWC V2.10 B1813,2013-02-12 01:05:00,
2013-02-11 17:10:00,42.9,32.3,30.25,SSW,196,0.0,1.0,66,0.00,,,0.00,7,LWC V2.10 B1813,2013-02-12 01:10:00,
2013-02-11 17:15:00,42.8,33.0,30.25,SSW,196,0.0,0.0,68,0.00,,,0.00,7,LWC V2.10 B1813,2013-02-12 01:15:00,
2013-02-11 17:20:00,42.6,33.5,30.25,SSW,196,0.0,0.0,70,0.00,,,0.00,5,LWC V2.10 B1813,2013-02-12 01:20:00,
2013-02-11 17:25:00,42.5,34.1,30.25,SSW,196,0.0,0.0,72,0.00,,,0.00,5,LWC V2.10 B1813,2013-02-12 01:25:00,
2013-02-11 17:30:00,42.4,34.4,30.25,SSW,196,0.0,0.0,73,0.00,,,0.00,0,LWC V2.10 B1813,2013-02-12 01:30:00,
2013-02-11 17:35:00,42.4,33.7,30.25,SSW,196,0.0,0.0,71,0.00,,,0.00,0,LWC V2.10 B1813,2013-02-12 01:35:00,
2013-02-11 17:40:00,42.3,34.3,30.25,SSW,196,0.0,0.0,73,0.00,,,0.00,0,LWC V2.10 B1813,2013-02-12 01:40:00,
2013-02-11 17:45:00,42.2,34.9,30.25,SSW,196,0.0,0.0,75,0.00,,,0.00,0,LWC V2.10 B1813,2013-02-12 01:45:00,
2013-02-11 17:50:00,42.1,35.1,30.25,SSW,196,0.0,0.0,76,0.00,,,0.00,0,LWC V2.10 B1813,2013-02-12 01:50:00,
2013-02-11 17:55:00,42.0,35.0,30.25,SSW,196,0.0,0.0,76,0.00,,,0.00,0,LWC V2.10 B1813,2013-02-12 01:55:00,
2013-02-11 18:00:00,41.8,35.1,30.25,SSW,196,0.0,0.0,77,0.00,,,0.00,0,LWC V2.10 B1813,2013-02-12 02:00:00,
2013-02-11 18:05:00,41.7,35.0,30.26,SSW,196,0.0,0.0,77,0.00,,,0.00,0,LWC V2.10 B1813,2013-02-12 02:05:00,
2013-02-11 18:10:00,41.5,34.8,30.26,SSW,196,0.0,1.0,77,0.00,,,0.00,0,LWC V2.10 B1813,2013-02-12 02:10:00,
2013-02-11 18:15:00,41.4,34.4,30.26,SSW,196,0.0,0.0,76,0.00,,,0.00,0,LWC V2.10 B1813,2013-02-12 02:15:00,
2013-02-11 18:20:00,41.3,34.6,30.26,SSW,196,0.0,0.0,77,0.00,,,0.00,0,LWC V2.10 B1813,2013-02-12 02:20:00,
2013-02-11 18:25:00,41.1,34.8,30.26,SSW,196,0.0,0.0,78,0.00,,,0.00,0,LWC V2.10 B1813,2013-02-12 02:25:00,
2013-02-11 18:30:00,40.9,34.6,30.26,SSW,196,0.0,0.0,78,0.00,,,0.00,0,LWC V2.10 B1813,2013-02-12 02:30:00,
2013-02-11 18:35:00,40.7,34.4,30.27,SSW,196,0.0,0.0,78,0.00,,,0.00,0,LWC V2.10 B1813,2013-02-12 02:35:00,
2013-02-11 18:40:00,40.5,34.2,30.27,SSW,196,0.0,0.0,78,0.00,,,0.00,0,LWC V2.10 B1813,2013-02-12 02:40:00,
2013-02-11 18:45:00,40.3,34.3,30.27,SSW,196,0.0,0.0,79,0.00,,,0.00,0,LWC V2.10 B1813,2013-02-12 02:45:00,
2013-02-11 18:50:00,40.0,34.0,30.27,SSW,196,0.0,0.0,79,0.00,,,0.00,0,LWC V2.10 B1813,2013-02-12 02:50:00,
2013-02-11 18:55:00,39.7,33.7,30.27,SSW,196,0.0,0.0,79,0.00,,,0.00,0,LWC V2.10 B1813,2013-02-12 02:55:00,
2013-02-11 19:00:00,39.4,33.4,30.28,SSW,196,0.0,0.0,79,0.00,,,0.00,0,LWC V2.10 B1813,2013-02-12 03:00:00,
2013-02-11 19:05:00,39.1,33.5,30.27,SSW,196,0.0,0.0,80,0.00,,,0.00,0,LWC V2.10 B1813,2013-02-12 03:05:00,
2013-02-11 19:10:00,38.8,33.2,30.28,SSW,196,0.0,0.0,80,0.00,,,0.00,0,LWC V2.10 B1813,2013-02-12 03:10:00,
2013-02-11 19:15:00,38.5,32.9,30.28,SSW,196,0.0,0.0,80,0.00,,,0.00,0,LWC V2.10 B1813,2013-02-12 03:15:00,
2013-02-11 19:20:00,38.2,32.6,30.27,SSW,196,0.0,0.0,80,0.00,,,0.00,0,LWC V2.10 B1813,2013-02-12 03:20:00,
2013-02-11 19:25:00,37.8,32.5,30.28,SSW,196,0.0,0.0,81,0.00,,,0.00,0,LWC V2.10 B1813,2013-02-12 03:25:00,
2013-02-11 19:30:00,37.4,32.1,30.28,SSW,196,0.0,0.0,81,0.00,,,0.00,0,LWC V2.10 B1813,2013-02-12 03:30:00,
2013-02-11 19:35:00,37.1,31.8,30.28,SSW,196,0.0,0.0,81,0.00,,,0.00,0,LWC V2.10 B1813,2013-02-12 03:35:00,
2013-02-11 19:40:00,36.6,31.3,30.28,SSW,196,0.0,0.0,81,0.00,,,0.00,0,LWC V2.10 B1813,2013-02-12 03:40:00,
2013-02-11 19:45:00,36.2,31.2,30.28,SSW,196,0.0,0.0,82,0.00,,,0.00,0,LWC V2.10 B1813,2013-02-12 03:45:00,
2013-02-11 19:50:00,35.7,30.8,30.28,SSW,196,0.0,0.0,82,0.00,,,0.00,0,LWC V2.10 B1813,2013-02-12 03:50:00,
2013-02-11 19:55:00,35.3,30.7,30.28,SSW,196,0.0,0.0,83,0.00,,,0.00,0,LWC V2.10 B1813,2013-02-12 03:55:00,
2013-02-11 20:00:00,34.9,30.3,30.28,SSW,196,0.0,0.0,83,0.00,,,0.00,0,LWC V2.10 B1813,2013-02-12 04:00:00,
2013-02-11 20:05:00,34.4,30.1,30.28,SSW,196,0.0,0.0,84,0.00,,,0.00,0,LWC V2.10 B1813,2013-02-12 04:05:00,
2013-02-11 20:10:00,34.1,29.8,30.29,SSW,196,0.0,0.0,84,0.00,,,0.00,0,LWC V2.10 B1813,2013-02-12 04:10:00,
2013-02-11 20:15:00,33.9,29.9,30.29,SSW,196,0.0,0.0,85,0.00,,,0.00,0,LWC V2.10 B1813,2013-02-12 04:15:00,
2013-02-11 20:20:00,33.7,29.7,30.29,SSW,196,0.0,0.0,85,0.00,,,0.00,0,LWC V2.10 B1813,2013-02-12 04:20:00,
2013-02-11 20:25:00,33.4,29.7,30.29,SSW,196,0.0,0.0,86,0.00,,,0.00,0,LWC V2.10 B1813,2013-02-12 04:25:00,
2013-02-11 20:30:00,33.1,29.1,30.29,SSW,196,0.0,0.0,85,0.00,,,0.00,0,LWC V2.10 B1813,2013-02-12 04:30:00,
2013-02-11 20:35:00,32.9,29.2,30.30,SSW,196,0.0,0.0,86,0.00,,,0.00,0,LWC V2.10 B1813,2013-02-12 04:35:00,
2013-02-11 20:40:00,32.6,28.9,30.30,SSW,196,0.0,0.0,86,0.00,,,0.00,0,LWC V2.10 B1813,2013-02-12 04:40:00,
2013-02-11 20:45:00,32.4,29.0,30.30,SSW,196,0.0,0.0,87,0.00,,,0.00,0,LWC V2.10 B1813,2013-02-12 04:45:00,
2013-02-11 20:50:00,32.1,28.7,30.30,SSW,196,0.0,0.0,87,0.00,,,0.00,0,LWC V2.10 B1813,2013-02-12 04:50:00,
2013-02-11 20:55:00,31.9,28.5,30.30,SSW,196,0.0,0.0,87,0.00,,,0.00,0,LWC V2.10 B1813,2013-02-12 04:55:00,
2013-02-11 21:00:00,31.7,28.6,30.30,SSW,196,0.0,0.0,88,0.00,,,0.00,0,LWC V2.10 B1813,2013-02-12 05:00:00,
2013-02-11 21:05:00,31.5,28.4,30.30,SSW,196,0.0,0.0,88,0.00,,,0.00,0,LWC V2.10 B1813,2013-02-12 05:05:00,
2013-02-11 21:10:00,31.4,28.3,30.30,SSW,196,0.0,0.0,88,0.00,,,0.00,0,LWC V2.10 B1813,2013-02-12 05:10:00,
2013-02-11 21:15:00,31.3,28.2,30.30,SSW,196,0.0,0.0,88,0.00,,,0.00,0,LWC V2.10 B1813,2013-02-12 05:15:00,
2013-02-11 21:20:00,31.2,28.1,30.30,SSW,196,0.0,0.0,88,0.00,,,0.00,0,LWC V2.10 B1813,2013-02-12 05:20:00,
2013-02-11 21:25:00,31.1,28.2,30.30,SSW,196,0.0,0.0,89,0.00,,,0.00,0,LWC V2.10 B1813,2013-02-12 05:25:00,
2013-02-11 21:30:00,31.0,28.1,30.30,SSW,196,0.0,0.0,89,0.00,,,0.00,0,LWC V2.10 B1813,2013-02-12 05:30:00,
2013-02-11 21:35:00,30.9,28.0,30.31,SSW,196,0.0,0.0,89,0.00,,,0.00,0,LWC V2.10 B1813,2013-02-12 05:35:00,
2013-02-11 21:40:00,30.8,27.9,30.31,SSW,196,0.0,0.0,89,0.00,,,0.00,0,LWC V2.10 B1813,2013-02-12 05:40:00,
2013-02-11 21:45:00,30.7,27.9,30.31,SSW,196,0.0,0.0,89,0.00,,,0.00,0,LWC V2.10 B1813,2013-02-12 05:45:00,
2013-02-11 21:50:00,30.6,27.8,30.31,SSW,196,0.0,0.0,89,0.00,,,0.00,0,LWC V2.10 B1813,2013-02-12 05:50:00,
2013-02-11 21:55:00,30.5,27.7,30.31,SSW,196,0.0,0.0,89,0.00,,,0.00,0,LWC V2.10 B1813,2013-02-12 05:55:00,
2013-02-11 22:00:00,30.4,27.6,30.31,SSW,196,0.0,0.0,89,0.00,,,0.00,0,LWC V2.10 B1813,2013-02-12 06:00:00,
2013-02-11 22:05:00,30.3,27.7,30.31,SSW,196,0.0,0.0,90,0.00,,,0.00,0,LWC V2.10 B1813,2013-02-12 06:05:00,
2013-02-11 22:10:00,30.3,27.7,30.31,SSW,196,0.0,0.0,90,0.00,,,0.00,0,LWC V2.10 B1813,2013-02-12 06:10:00,
2013-02-11 22:15:00,30.2,27.6,30.31,SSW,196,0.0,0.0,90,0.00,,,0.00,0,LWC V2.10 B1813,2013-02-12 06:15:00,
2013-02-11 22:20:00,30.2,27.6,30.31,SSW,196,0.0,0.0,90,0.00,,,0.00,0,LWC V2.10 B1813,2013-02-12 06:20:00,
2013-02-11 22:25:00,30.2,27.6,30.32,SSW,196,0.0,0.0,90,0.00,,,0.00,0,LWC V2.10 B1813,2013-02-12 06:25:00,
2013-02-11 22:30:00,30.1,27.5,30.32,SSW,196,0.0,0.0,90,0.00,,,0.00,0,LWC V2.10 B1813,2013-02-12 06:30:00,
2013-02-11 22:35:00,30.1,27.5,30.32,SSW,196,0.0,0.0,90,0.00,,,0.00,0,LWC V2.10 B1813,2013-02-12 06:35:00,
2013-02-11 22:40:00,30.1,27.5,30.31,SSW,196,0.0,0.0,90,0.00,,,0.00,0,LWC V2.10 B1813,2013-02-12 06:40:00,
2013-02-11 22:45:00,30.0,27.7,30.31,SSW,196,0.0,0.0,91,0.00,,,0.00,0,LWC V2.10 B1813,2013-02-12 06:45:00,
2013-02-11 22:50:00,29.9,27.6,30.31,SSW,196,0.0,0.0,91,0.00,,,0.00,0,LWC V2.10 B1813,2013-02-12 06:50:00,
2013-02-11 22:52:00,29.9,27.6,30.31,SSW,196,0.0,0.0,91,0.00,,,0.00,0,LWC V2.10 B1813,2013-02-12 06:52:00,
2013-02-11 22:57:00,29.8,27.5,30.31,SSW,196,0.0,0.0,91,0.00,,,0.00,0,LWC V2.10 B1813,2013-02-12 06:57:00,
2013-02-11 23:02:00,29.8,27.5,30.32,SSW,196,0.0,0.0,91,0.00,,,0.00,0,LWC V2.10 B1813,2013-02-12 07:02:00,
2013-02-11 23:07:00,29.8,27.5,30.32,SSW,196,0.0,0.0,91,0.00,,,0.00,0,LWC V2.10 B1813,2013-02-12 07:07:00,
2013-02-11 23:12:00,29.8,27.5,30.32,SSW,196,0.0,0.0,91,0.00,,,0.00,0,LWC V2.10 B1813,2013-02-12 07:12:00,
2013-02-11 23:17:00,29.8,27.5,30.32,SSW,196,0.0,0.0,91,0.00,,,0.00,0,LWC V2.10 B1813,2013-02-12 07:17:00,
2013-02-11 23:22:00,29.8,27.8,30.32,SSW,196,0.0,0.0,92,0.00,,,0.00,0,LWC V2.10 B1813,2013-02-12 07:22:00,
2013-02-11 23:27:00,29.8,27.8,30.33,SSW,196,0.0,0.0,92,0.00,,,0.00,0,LWC V2.10 B1813,2013-02-12 07:27:00,
2013-02-11 23:32:00,29.7,27.4,30.33,SSW,196,0.0,0.0,91,0.00,,,0.00,0,LWC V2.10 B1813,2013-02-12 07:32:00,
2013-02-11 23:37:00,29.7,27.7,30.33,SSW,196,0.0,0.0,92,0.00,,,0.00,0,LWC V2.10 B1813,2013-02-12 07:37:00,
2013-02-11 23:42:00,29.6,27.6,30.33,SSW,196,0.0,0.0,92,0.00,,,0.00,0,LWC V2.10 B1813,2013-02-12 07:42:00,
2013-02-11 23:47:00,29.6,27.6,30.33,SSW,196,0.0,0.0,92,0.00,,,0.00,0,LWC V2.10 B1813,2013-02-12 07:47:00,
2013-02-11 23:52:00,29.6,27.6,30.33,SSW,196,0.0,0.0,92,0.00,,,0.00,0,LWC V2.10 B1813,2013-02-12 07:52:00,
2013-02-11 23:57:00,29.5,27.5,30.33,SSW,196,0.0,0.0,92,0.00,,,0.00,0,LWC V2.10 B1813,2013-02-12 07:57:00,